Regional Weather Roundup
Issued by NWS Upton, NY

Current Version | Previous Version | Graphics & Text | Print | Product List | Glossary Off
Versions: 1 2 3 4 5 6 7 8 9 10 11 12 13 14 15 16 17 18 19 20 21 22 23 24 25 26 27 28 29 30 31 32 33 34 35 36 37 38 39 40 41 42 43 44 45 46 47 48 49 50
529 ASUS41 KOKX 280904 RWROKX REGIONAL WEATHER ROUNDUP NATIONAL WEATHER SERVICE NEW YORK NY 500 AM EDT SAT MAY 28 2016 NOTE: "FAIR" INDICATES FEW OR NO CLOUDS BELOW 12,000 FEET WITH NO SIGNIFICANT WEATHER AND/OR OBSTRUCTIONS TO VISIBILITY. NYZ071-072-176-178-NJZ106-104-281000- NEW YORK CITY METRO AREA CITY SKY/WX TMP DP RH WIND PRES REMARKS CENTRAL PARK CLOUDY 71 58 63 VRB5 30.11S LAGUARDIA APRT PTCLDY 74 63 68 SW8 30.08R KENNEDY INTL CLOUDY 66 59 78 S8 30.10S NEWARK/LIBERTY MOCLDY 72 59 63 SW9 30.09R BRNX BOT. GARD N/A 72 59 64 SW5 30.08F TETERBORO PTCLDY 72 60 66 S6 30.07S $$ NYZ177-179-078>081-281000- LONG ISLAND NEW YORK CITY SKY/WX TMP DP RH WIND PRES REMARKS FARMINGDALE CLOUDY 65 57 75 SW6 30.10S ISLIP CLOUDY 65 58 78 SW8 30.10R SHIRLEY CLEAR 66 59 78 SW7 30.11R RIVERHEAD N/A 68 59 73 NE1 30.09R WESTHAMPTON PTCLDY 63 57 81 SW9 30.12R EAST HAMPTON FAIR 63 58 83 SW12G18 30.09S MONTAUK POINT N/A 65 59 81 SW16G30 30.10S $$ NYZ052-065-067-281000- HUDSON VALLEY CITY SKY/WX TMP DP RH WIND PRES REMARKS WHITE PLAINS PTCLDY 69 62 78 CALM 30.09R NEWBURGH PTCLDY 70 68 94 CALM 30.08 MONTGOMERY PTCLDY 65 64 97 CALM 30.07R FOG POUGHKEEPSIE CLOUDY 67 63 87 CALM 30.06R ALBANY MOCLDY 68 64 87 CALM 30.06R $$ NJZ001-105-106-008-010-013-015-019>022-104-281000- NEW JERSEY CITY SKY/WX TMP DP RH WIND PRES REMARKS NEWARK/LIBERTY MOCLDY 72 59 63 SW9 30.09R TETERBORO PTCLDY 72 60 66 S6 30.07S CALDWELL PTCLDY 72 63 73 SW3 30.09R MORRISTOWN CLOUDY 68 61 77 S3 30.10R SOMERVILLE CLEAR 66 63 90 CALM 30.09R SUSSEX CLEAR 66 63 90 CALM 30.09R FOG ANDOVER N/A 69 66 90 CALM 30.10R TRENTON CLEAR 68 58 70 CALM 30.11R MILLVILLE CLOUDY 68 61 78 VRB3 30.13R ATLANTIC CITY MOCLDY 67 60 78 S5 30.13R WRIGHTSTOWN CLEAR 65 59 80 SW3 30.10R TOMS RIVER CLEAR 63 54 72 CALM 30.13R BELMAR CLEAR 67 58 72 S7 30.13R $$ PAZ047>061-062-071-281000- EASTERN PENNSYLVANIA CITY SKY/WX TMP DP RH WIND PRES REMARKS PHILADELPHIA PTCLDY 69 59 70 S7 30.12R ALLENTOWN MOCLDY 68 63 84 SW5 30.10R SCRANTON PTCLDY 65 63 93 CALM 30.10R $$ CTZ002-004>006-009-010-012-RIZ004-006-007-MAZ004-011-015-281000- SOUTHERN NEW ENGLAND IN CT CITY SKY/WX TMP DP RH WIND PRES REMARKS BRADLEY INTL MOCLDY 65 59 81 S6 30.06R HARTFORD CLOUDY 69 61 75 S3 30.07R DANBURY PTCLDY 63 61 93 CALM 30.10R WTRBRY/OXFORD N/A 64 59 82 CALM 30.10S BRIDGEPORT PTCLDY 66 60 81 SW6 30.08R MERIDEN PTCLDY 65 59 81 CALM 30.08R NEW HAVEN MOCLDY 65 58 78 SW5 30.08S CHESTER FAIR 66 57 72 SW8G15 30.09S GROTON CLEAR 61 58 90 SW6 30.08R WILLIMANTIC PTCLDY 64 58 80 CALM 30.08S IN RI CITY SKY/WX TMP DP RH WIND PRES REMARKS PROVIDENCE CLEAR 63 56 78 SW6 30.08R BLOCK ISLAND CLEAR 59 57 93 SW15 30.11R WESTERLY CLEAR 64 56 75 CALM 30.09S IN MA CITY SKY/WX TMP DP RH WIND PRES REMARKS BOSTON MOCLDY 67 57 70 SW10 30.04S WORCESTER PTCLDY 64 60 87 W14 30.08R WESTFIELD MOCLDY 64 60 87 CALM 30.06R PROVINCETOWN PTCLDY 60 57 89 SW12 30.06R NANTUCKET CLOUDY 60 57 89 SW13 30.11S $$ ANZ330-335-338-340-345-350-353-355-281000- COASTAL MARINE OBSERVATIONS STATION/POSITION TIME SKY/WX TEMP WIND PRES VSBY WAVE AIR SEA DIR/SP/G HT/PER (UTC) (F) (DEG/KT/KT) (MB) (MI) (FT/S) NY HARB ENTRANCE 0750 61 57 210/ 10/ 12 1018.9 3/ 6 20S FIRE ISLAND 0750 61 58 220/ 14/ 16 1019.1 4/ 6 GREAT SOUTH BAY 0800 65 68 220/ 16/ 19 N/A 23 SSW MONTAUK P 0850 60 56 230/ 16/ 17 1019.0 4/ 6 15 E BARNEGAT LI 0822 59 N/A 3/ 5 HUDSON CANYON 0750 60 57 1020.6 3/ 5 KINGS POINT 0800 67 59 1018.4 EXECUTION ROCKS NOT AVBL CENTRAL LI SOUND 0800 63 240/ 6/ 6 N/A 1/ 4 EASTERN LI SOUND 0800 58 53 240/ 2/ 4 N/A ROBBINS REEF 0800 72 230/ 7/ 9 1018.2 $$ >>>>>>>>>>>>>>>>>>>>>>>>>>>> KEY <<<<<<<<<<<<<<<<<<<<<<<<<<< > < > SKY/WX - SKY CONDITION/PRESENT WEATHER < > TMP - TEMPERATURE IN FAHRENHEIT < > DP - DEWPOINT IN FAHRENHEIT < > RH - RELATIVE HUMIDITY IN PERCENT < > WIND - DIRECTION AND SPEED IN MPH < > PRES - MEAN SEA LEVEL PRESSURE IN INCHES OF HG < > WCI - WIND CHILL INDEX < > VSB - VISIBILITY IN MILES < > HX - HEAT INDEX < > TC - TEMPERATURE IN CELSIUS < > VRB - VARIABLE WIND DIRECTION < > < >>>>>>>>>>>>>>>>>>>>>>>>>>>> KEY <<<<<<<<<<<<<<<<<<<<<<<<<<<

USA.gov is the U.S. government's official web portal to all federal, state and local government web resources and services.